| time (UTC) | temp F | wind direction | speed MPH | gust MPH | rain 1hr in | rain 24hr in | rain mn in | humidity % | barometer mb |
| 20260508082516 | 44 | 0.0 | 1.0 | 0.00 | 0.00 | 0.00 | 65 | 1009.3 | |
| 20260508081516 | 44 | 0.0 | 0.0 | 0.00 | 0.00 | 0.00 | 67 | 1009.3 | |
| 20260508080516 | 43 | 0.0 | 0.0 | 0.00 | 0.00 | 0.00 | 66 | 1009.3 | |
| 20260508075519 | 43 | 0.0 | 0.0 | 0.00 | 0.00 | 0.00 | 65 | 1009.1 | |
| 20260508074517 | 44 | 0.0 | 0.0 | 0.00 | 0.00 | 0.00 | 64 | 1009.0 | |
| 20260508073516 | 44 | 0.0 | 0.0 | 0.00 | 0.00 | 0.00 | 64 | 1009.0 | |
| 20260508072516 | 44 | 0.0 | 0.0 | 0.00 | 0.00 | 0.00 | 63 | 1008.9 | |
| 20260508071516 | 44 | 0.0 | 3.0 | 0.00 | 0.00 | 0.00 | 61 | 1009.0 | |
| 20260508070517 | 44 | 0.0 | 1.0 | 0.00 | 0.00 | 0.00 | 62 | 1008.9 | |
| 20260508065526 | 42 | 0.0 | 2.0 | 0.00 | 0.01 | 0.00 | 68 | 1008.7 | |
| 20260508064516 | 41 | 0.0 | 0.0 | 0.00 | 0.02 | 0.00 | 67 | 1008.5 | |
| 20260508063517 | 42 | 0.0 | 0.0 | 0.00 | 0.02 | 0.00 | 67 | 1008.3 | |
| 20260508062516 | 42 | 0.0 | 0.0 | 0.00 | 0.02 | 0.00 | 65 | 1008.2 | |
| 20260508061516 | 42 | 0.0 | 0.0 | 0.00 | 0.02 | 0.00 | 67 | 1008.1 | |
| 20260508060516 | 42 | 0.0 | 0.0 | 0.00 | 0.02 | 0.00 | 68 | 1008.1 | |
| 20260508055518 | 42 | 0.0 | 0.0 | 0.00 | 0.02 | 0.00 | 67 | 1008.1 | |
| 20260508054522 | 42 | 0.0 | 0.0 | 0.00 | 0.02 | 0.00 | 68 | 1008.2 | |
| 20260508053516 | 42 | 0.0 | 1.0 | 0.00 | 0.02 | 0.00 | 68 | 1008.1 | |
| 20260508052516 | 42 | 0.0 | 0.0 | 0.00 | 0.02 | 0.00 | 68 | 1008.1 | |
| 20260508051516 | 42 | 0.0 | 1.0 | 0.00 | 0.02 | 0.00 | 70 | 1008.3 | |
| 20260508050516 | 42 | 0.0 | 0.0 | 0.00 | 0.02 | 0.00 | 68 | 1008.5 | |
| 20260508045516 | 43 | 0.0 | 0.0 | 0.00 | 0.02 | 0.00 | 66 | 1008.5 | |
| 20260508044516 | 43 | 0.0 | 0.0 | 0.00 | 0.02 | 0.00 | 66 | 1008.4 | |
| 20260508043517 | 44 | 0.0 | 0.0 | 0.00 | 0.02 | 0.00 | 65 | 1008.4 | |
| 20260508042516 | 44 | 0.0 | 0.0 | 0.00 | 0.02 | 0.00 | 62 | 1008.6 | |
| 20260508041518 | 44 | 0.0 | 0.0 | 0.00 | 0.02 | 0.00 | 60 | 1008.7 | |
| 20260508040516 | 45 | 0.0 | 0.0 | 0.00 | 0.02 | 0.00 | 57 | 1008.7 | |
| 20260508035516 | 46 | 0.0 | 0.0 | 0.00 | 0.02 | 0.02 | 55 | 1008.6 | |
| 20260508034517 | 47 | 0.0 | 0.0 | 0.00 | 0.02 | 0.02 | 52 | 1008.7 | |
| 20260508033517 | 47 | 0.0 | 0.0 | 0.00 | 0.02 | 0.02 | 50 | 1008.6 | |
| 20260508032537 | 48 | 0.0 | 0.0 | 0.00 | 0.02 | 0.02 | 48 | 1008.7 | |
| 20260508031537 | 49 | 0.0 | 0.0 | 0.00 | 0.02 | 0.02 | 47 | 1008.8 | |
| 20260508030517 | 50 | 0.0 | 0.0 | 0.00 | 0.02 | 0.02 | 45 | 1008.7 | |
| 20260508025516 | 50 | 0.0 | 1.0 | 0.00 | 0.03 | 0.02 | 44 | 1008.8 | |
| 20260508024516 | 51 | 0.0 | 0.0 | 0.00 | 0.03 | 0.02 | 44 | 1008.7 | |
| 20260508023516 | 51 | 0.0 | 4.0 | 0.00 | 0.03 | 0.02 | 43 | 1008.6 | |
| 20260508022516 | 51 | 0.0 | 4.0 | 0.00 | 0.03 | 0.02 | 44 | 1008.5 | |
| 20260508021517 | 51 | 0.0 | 2.0 | 0.00 | 0.04 | 0.02 | 44 | 1008.5 | |
| 20260508020517 | 51 | 0.0 | 1.0 | 0.00 | 0.04 | 0.02 | 44 | 1008.6 | |
| 20260508015519 | 51 | 0.0 | 2.0 | 0.00 | 0.04 | 0.02 | 44 | 1008.5 | |
| 20260508014517 | 50 | 0.0 | 1.0 | 0.00 | 0.04 | 0.02 | 46 | 1008.5 | |
| 20260508013516 | 50 | 0.0 | 2.0 | 0.00 | 0.05 | 0.02 | 47 | 1008.6 | |
| 20260508012516 | 50 | 0.0 | 1.0 | 0.00 | 0.05 | 0.02 | 47 | 1008.5 | |
| 20260508011556 | 51 | 0.0 | 1.0 | 0.00 | 0.05 | 0.02 | 45 | 1008.3 | |
| 20260508010516 | 52 | 0.0 | 1.0 | 0.00 | 0.06 | 0.02 | 44 | 1008.2 | |
| 20260508005537 | 52 | 0.0 | 0.0 | 0.00 | 0.09 | 0.02 | 43 | 1008.0 | |
| 20260508004516 | 53 | 0.0 | 1.0 | 0.00 | 0.09 | 0.02 | 42 | 1007.8 | |
| 20260508003516 | 53 | 0.0 | 1.0 | 0.00 | 0.09 | 0.02 | 42 | 1007.7 | |
| 20260508002516 | 54 | 0.0 | 1.0 | 0.00 | 0.09 | 0.02 | 41 | 1007.6 | |
| 20260508001517 | 54 | 23 | 1.0 | 5.0 | 0.00 | 0.09 | 0.02 | 39 | 1007.6 |
| 20260508000516 | 55 | 0 | 1.0 | 3.0 | 0.00 | 0.09 | 0.02 | 39 | 1007.5 |
| 20260507235516 | 55 | 23 | 2.0 | 8.0 | 0.00 | 0.09 | 0.02 | 38 | 1007.4 |
| 20260507234516 | 56 | 0.0 | 2.0 | 0.00 | 0.09 | 0.02 | 39 | 1007.4 | |
| 20260507233516 | 56 | 45 | 1.0 | 5.0 | 0.00 | 0.09 | 0.02 | 38 | 1007.2 |
| 20260507232516 | 57 | 315 | 1.0 | 5.0 | 0.00 | 0.09 | 0.02 | 37 | 1007.1 |
| 20260507231516 | 59 | 338 | 1.0 | 4.0 | 0.00 | 0.09 | 0.02 | 36 | 1007.0 |
| 20260507230516 | 59 | 23 | 2.0 | 10.0 | 0.00 | 0.09 | 0.02 | 35 | 1007.0 |
| 20260507225516 | 59 | 23 | 2.0 | 6.0 | 0.00 | 0.09 | 0.02 | 35 | 1007.0 |
| 20260507224516 | 59 | 45 | 1.0 | 4.0 | 0.00 | 0.09 | 0.02 | 37 | 1007.1 |
| 20260507223516 | 59 | 315 | 3.0 | 10.0 | 0.00 | 0.09 | 0.02 | 37 | 1007.0 |
| 20260507222536 | 60 | 45 | 3.0 | 9.0 | 0.00 | 0.09 | 0.02 | 35 | 1006.9 |
| 20260507221516 | 60 | 0 | 2.0 | 8.0 | 0.00 | 0.09 | 0.02 | 38 | 1006.8 |
| 20260507220516 | 59 | 45 | 2.0 | 8.0 | 0.00 | 0.10 | 0.02 | 36 | 1006.7 |
| 20260507215516 | 59 | 23 | 3.0 | 7.0 | 0.00 | 0.10 | 0.02 | 37 | 1006.7 |
| 20260507214536 | 60 | 23 | 2.0 | 7.0 | 0.00 | 0.11 | 0.02 | 37 | 1006.7 |
| 20260507213516 | 60 | 45 | 3.0 | 7.0 | 0.00 | 0.11 | 0.02 | 37 | 1006.5 |
| 20260507212516 | 59 | 23 | 2.0 | 6.0 | 0.00 | 0.11 | 0.02 | 37 | 1006.5 |
| 20260507211516 | 61 | 23 | 3.0 | 10.0 | 0.00 | 0.11 | 0.02 | 35 | 1006.5 |
| 20260507210516 | 62 | 23 | 4.0 | 10.0 | 0.00 | 0.11 | 0.02 | 33 | 1006.4 |
| 20260507205516 | 63 | 23 | 2.0 | 6.0 | 0.00 | 0.12 | 0.02 | 34 | 1006.3 |
| 20260507204516 | 63 | 23 | 3.0 | 7.0 | 0.00 | 0.12 | 0.02 | 33 | 1006.3 |
| 20260507203516 | 64 | 315 | 2.0 | 7.0 | 0.00 | 0.12 | 0.02 | 34 | 1006.3 |
| 20260507202516 | 63 | 23 | 2.0 | 7.0 | 0.00 | 0.12 | 0.02 | 34 | 1006.4 |
| 20260507201516 | 63 | 23 | 3.0 | 8.0 | 0.00 | 0.13 | 0.02 | 35 | 1006.5 |
| 20260507200536 | 63 | 23 | 3.0 | 9.0 | 0.00 | 0.14 | 0.02 | 35 | 1006.6 |
| 20260507195516 | 61 | 23 | 3.0 | 12.0 | 0.00 | 0.14 | 0.02 | 36 | 1006.6 |
| 20260507194516 | 61 | 45 | 2.0 | 9.0 | 0.00 | 0.15 | 0.02 | 36 | 1006.8 |
| 20260507193557 | 61 | 23 | 2.0 | 9.0 | 0.00 | 0.15 | 0.02 | 36 | 1006.9 |
| 20260507192516 | 62 | 23 | 3.0 | 9.0 | 0.00 | 0.15 | 0.02 | 36 | 1007.0 |
| 20260507191515 | 63 | 23 | 2.0 | 8.0 | 0.00 | 0.16 | 0.02 | 34 | 1006.8 |
| 20260507190515 | 63 | 45 | 3.0 | 7.0 | 0.00 | 0.16 | 0.02 | 35 | 1007.0 |
| 20260507185518 | 64 | 45 | 3.0 | 10.0 | 0.00 | 0.16 | 0.02 | 34 | 1007.1 |
| 20260507184516 | 63 | 23 | 4.0 | 11.0 | 0.00 | 0.16 | 0.02 | 35 | 1007.1 |
| 20260507183519 | 63 | 45 | 3.0 | 9.0 | 0.00 | 0.16 | 0.02 | 35 | 1007.0 |
| 20260507182515 | 63 | 0 | 4.0 | 10.0 | 0.00 | 0.17 | 0.02 | 34 | 1007.1 |
| 20260507181515 | 63 | 338 | 3.0 | 10.0 | 0.00 | 0.17 | 0.02 | 35 | 1007.2 |
| 20260507180536 | 63 | 270 | 3.0 | 10.0 | 0.00 | 0.17 | 0.02 | 38 | 1007.4 |
| 20260507175518 | 63 | 0 | 3.0 | 11.0 | 0.00 | 0.18 | 0.02 | 35 | 1007.4 |
| 20260507174535 | 63 | 293 | 4.0 | 12.0 | 0.00 | 0.18 | 0.02 | 34 | 1007.5 |
| 20260507173515 | 63 | 338 | 3.0 | 8.0 | 0.00 | 0.19 | 0.02 | 35 | 1007.3 |
| 20260507172515 | 63 | 338 | 3.0 | 9.0 | 0.00 | 0.20 | 0.02 | 32 | 1007.6 |
| 20260507171517 | 63 | 270 | 2.0 | 9.0 | 0.00 | 0.20 | 0.02 | 36 | 1007.4 |
| 20260507170520 | 62 | 315 | 4.0 | 10.0 | 0.00 | 0.20 | 0.02 | 36 | 1007.5 |
| 20260507165518 | 62 | 45 | 2.0 | 7.0 | 0.00 | 0.20 | 0.02 | 36 | 1007.5 |
| 20260507164522 | 61 | 248 | 3.0 | 7.0 | 0.00 | 0.20 | 0.02 | 37 | 1007.8 |
| 20260507163549 | 62 | 23 | 2.0 | 7.0 | 0.00 | 0.20 | 0.02 | 37 | 1007.9 |
| 20260507162537 | 61 | 45 | 3.0 | 12.0 | 0.00 | 0.20 | 0.02 | 35 | 1008.1 |
| 20260507161523 | 61 | 45 | 3.0 | 8.0 | 0.00 | 0.20 | 0.02 | 38 | 1008.2 |
| 20260507160519 | 61 | 23 | 2.0 | 7.0 | 0.00 | 0.20 | 0.02 | 38 | 1008.5 |
| 20260507155519 | 60 | 23 | 2.0 | 9.0 | 0.00 | 0.20 | 0.02 | 40 | 1008.5 |
| 20260507154517 | 60 | 45 | 2.0 | 6.0 | 0.00 | 0.20 | 0.02 | 39 | 1008.6 |
| 20260507153518 | 60 | 90 | 2.0 | 6.0 | 0.00 | 0.20 | 0.02 | 39 | 1008.6 |
| 20260507152517 | 59 | 113 | 2.0 | 6.0 | 0.00 | 0.20 | 0.02 | 39 | 1008.6 |
| 20260507151537 | 60 | 23 | 2.0 | 7.0 | 0.00 | 0.20 | 0.02 | 38 | 1008.6 |
| 20260507150518 | 59 | 68 | 1.0 | 4.0 | 0.00 | 0.20 | 0.02 | 40 | 1008.6 |
| 20260507145517 | 58 | 45 | 2.0 | 5.0 | 0.00 | 0.20 | 0.02 | 44 | 1008.8 |
| 20260507144520 | 58 | 45 | 2.0 | 9.0 | 0.00 | 0.20 | 0.02 | 40 | 1008.9 |
| 20260507143517 | 58 | 23 | 2.0 | 8.0 | 0.00 | 0.20 | 0.02 | 42 | 1009.0 |
| 20260507142538 | 58 | 23 | 1.0 | 6.0 | 0.00 | 0.20 | 0.02 | 43 | 1009.0 |
| 20260507141517 | 57 | 0 | 1.0 | 6.0 | 0.00 | 0.20 | 0.02 | 48 | 1009.0 |
| 20260507140517 | 56 | 338 | 4.0 | 11.0 | 0.00 | 0.20 | 0.02 | 44 | 1008.9 |
| 20260507135517 | 56 | 45 | 2.0 | 6.0 | 0.00 | 0.20 | 0.02 | 46 | 1009.0 |
| 20260507134517 | 55 | 0 | 1.0 | 6.0 | 0.00 | 0.20 | 0.02 | 47 | 1008.9 |
| 20260507133517 | 55 | 23 | 2.0 | 8.0 | 0.00 | 0.20 | 0.02 | 48 | 1008.9 |
| 20260507132517 | 55 | 23 | 2.0 | 5.0 | 0.00 | 0.20 | 0.02 | 48 | 1008.9 |
| 20260507131517 | 54 | 23 | 2.0 | 8.0 | 0.00 | 0.20 | 0.02 | 52 | 1008.9 |
| 20260507130517 | 54 | 23 | 2.0 | 5.0 | 0.00 | 0.20 | 0.02 | 54 | 1008.9 |
| 20260507125517 | 54 | 23 | 1.0 | 4.0 | 0.00 | 0.20 | 0.02 | 56 | 1008.8 |
| 20260507124517 | 53 | 23 | 2.0 | 7.0 | 0.00 | 0.20 | 0.02 | 58 | 1008.9 |
| 20260507123517 | 53 | 45 | 2.0 | 5.0 | 0.00 | 0.20 | 0.02 | 61 | 1008.8 |
| 20260507122537 | 52 | 45 | 2.0 | 11.0 | 0.00 | 0.20 | 0.02 | 64 | 1008.8 |
| 20260507121517 | 52 | 23 | 2.0 | 7.0 | 0.00 | 0.20 | 0.02 | 66 | 1008.9 |
| 20260507120517 | 51 | 0 | 2.0 | 8.0 | 0.00 | 0.20 | 0.02 | 69 | 1008.9 |
| 20260507115517 | 51 | 315 | 4.0 | 10.0 | 0.00 | 0.20 | 0.02 | 71 | 1008.9 |
| 20260507114517 | 50 | 293 | 2.0 | 8.0 | 0.00 | 0.20 | 0.02 | 76 | 1008.7 |
| 20260507113517 | 50 | 293 | 3.0 | 8.0 | 0.00 | 0.20 | 0.02 | 77 | 1008.7 |
| 20260507112537 | 50 | 338 | 3.0 | 8.0 | 0.00 | 0.20 | 0.02 | 80 | 1008.5 |
| 20260507111518 | 49 | 315 | 2.0 | 7.0 | 0.00 | 0.20 | 0.02 | 81 | 1008.4 |
| 20260507110518 | 49 | 315 | 1.0 | 5.0 | 0.00 | 0.20 | 0.02 | 83 | 1008.4 |
| 20260507105517 | 49 | 270 | 1.0 | 5.0 | 0.00 | 0.20 | 0.02 | 84 | 1008.3 |
| 20260507104517 | 49 | 338 | 1.0 | 4.0 | 0.00 | 0.20 | 0.02 | 84 | 1008.1 |
| 20260507103518 | 49 | 338 | 1.0 | 4.0 | 0.00 | 0.20 | 0.02 | 85 | 1007.8 |
| 20260507102517 | 49 | 45 | 1.0 | 4.0 | 0.00 | 0.20 | 0.02 | 85 | 1007.6 |
| 20260507101517 | 49 | 23 | 1.0 | 5.0 | 0.00 | 0.20 | 0.02 | 85 | 1007.5 |
| 20260507100517 | 49 | 23 | 2.0 | 5.0 | 0.00 | 0.20 | 0.02 | 86 | 1007.6 |
| 20260507095517 | 49 | 315 | 2.0 | 5.0 | 0.00 | 0.20 | 0.02 | 87 | 1007.6 |
| 20260507094517 | 49 | 0.0 | 2.0 | 0.00 | 0.20 | 0.02 | 87 | 1007.4 | |
| 20260507093517 | 49 | 0.0 | 2.0 | 0.00 | 0.20 | 0.02 | 88 | 1007.4 | |
| 20260507092557 | 49 | 338 | 1.0 | 6.0 | 0.00 | 0.20 | 0.02 | 88 | 1007.4 |
| 20260507091517 | 49 | 0.0 | 2.0 | 0.00 | 0.20 | 0.02 | 89 | 1007.6 | |
| 20260507090517 | 49 | 0 | 1.0 | 4.0 | 0.00 | 0.20 | 0.02 | 90 | 1007.3 |
| 20260507085517 | 49 | 0.0 | 2.0 | 0.00 | 0.20 | 0.02 | 91 | 1007.5 | |
| 20260507084537 | 50 | 270 | 1.0 | 4.0 | 0.00 | 0.20 | 0.02 | 92 | 1007.5 |
| 20260507083516 | 50 | 0.0 | 5.0 | 0.00 | 0.20 | 0.02 | 92 | 1007.9 |